(°C)
11°
11°
10°
(°C)
JJZ
JJZ
JJZ
JJZ
J
JJI
JJI
(km/h)
16-24
15-25
14-25
13-24
11-20
10-19
10-17
(mm)
0
0
0
0
0
0
0
(%)
0
0
0
0
0
0
0

Podizanje Sunca

/ 20.8°
sun-icon
UV 1
07:25
17:53
Rastući mesec (144°)
17:29
02:53

METAR za 55.31°S 61.5°I (USCC)

Vreme Uslovi Temperatura/
Tačka rose
Vetar Vidljivost Prognoza Oblaci Pritisak Promena Neobrađeno
VFR 11°C / -3°C 240º 10kt >10km - Clouds and Visibility OK 1020 No Significant change USCC 170900Z 24005MPS CAVOK 11/M03 Q1020 R27/000060 NOSIG RMK QFE745
VFR 11°C / -3°C 230º 10kt >10km - Clouds and Visibility OK 1020 No Significant change USCC 170830Z 23005MPS CAVOK 11/M03 Q1020 R27/000060 NOSIG RMK QFE745
VFR 11°C / -3°C 240º 12kt >10km - Clouds and Visibility OK 1020 No Significant change USCC 170800Z 24006MPS CAVOK 11/M03 Q1020 R27/000060 NOSIG RMK QFE745
VFR 11°C / -3°C 230º 12kt >10km - Clouds and Visibility OK 1020 No Significant change USCC 170730Z 23006MPS CAVOK 11/M03 Q1020 R27/000060 NOSIG RMK QFE745
VFR 11°C / -3°C 230º 10kt >10km - Clouds and Visibility OK 1020 No Significant change USCC 170700Z 23005MPS CAVOK 11/M03 Q1020 R27/000060 NOSIG RMK QFE745
VFR 10°C / -3°C 240º 12kt >10km - Clouds and Visibility OK 1021 No Significant change USCC 170630Z 24006MPS CAVOK 10/M03 Q1021 R27/000060 NOSIG RMK QFE745
VFR 9°C / -2°C 240º 12kt >10km - Clouds and Visibility OK 1021 No Significant change USCC 170600Z 24006MPS CAVOK 09/M02 Q1021 R27/000060 NOSIG RMK QFE746
VFR 9°C / -2°C 220º 10kt >10km - Clouds and Visibility OK 1021 No Significant change USCC 170530Z 22005MPS CAVOK 09/M02 Q1021 R27/000060 NOSIG RMK QFE746
VFR 8°C / -2°C 230º 10kt >10km - Clouds and Visibility OK 1021 No Significant change USCC 170500Z 23005MPS CAVOK 08/M02 Q1021 R27/000060 NOSIG RMK QFE746
VFR 6°C / -2°C 220º 8kt >10km - Clouds and Visibility OK 1021 No Significant change USCC 170430Z 22004MPS CAVOK 06/M02 Q1021 R27/000060 NOSIG RMK QFE746
VFR 5°C / -2°C 220º 8kt >10km - Clouds and Visibility OK 1021 No Significant change USCC 170400Z 22004MPS CAVOK 05/M02 Q1021 R27/000060 NOSIG RMK QFE746
VFR 4°C / -2°C 230º 10kt >10km - Clouds and Visibility OK 1021 No Significant change USCC 170330Z 23005MPS CAVOK 04/M02 Q1021 R27/000060 NOSIG RMK QFE746
VFR 3°C / -2°C 220º 8kt >10km - Clouds and Visibility OK 1021 No Significant change USCC 170300Z 22004MPS CAVOK 03/M02 Q1021 R27/000060 NOSIG RMK QFE746
VFR 3°C / -2°C 230º 8kt >10km - Clouds and Visibility OK 1021 No Significant change USCC 170230Z 23004MPS CAVOK 03/M02 Q1021 R27/000060 NOSIG RMK QFE746
VFR 4°C / -2°C 230º 10kt >10km - Clouds and Visibility OK 1021 No Significant change USCC 170200Z 23005MPS CAVOK 04/M02 Q1021 R27/000060 NOSIG RMK QFE746
VFR 4°C / -2°C 220º 10kt >10km - Clouds and Visibility OK 1021 No Significant change USCC 170130Z 22005MPS CAVOK 04/M02 Q1021 R27/000060 NOSIG RMK QFE746
MVFR 4°C / -2°C 220º 8kt 6000m - Clear 1021 No Significant change USCC 170100Z 22004MPS 6000 NSC 04/M02 Q1021 R27/000060 NOSIG RMK QFE746
MVFR 3°C / -2°C 230º 8kt 6000m - Clear 1021 No Significant change USCC 170030Z 23004MPS 6000 NSC 03/M02 Q1021 R27/000060 NOSIG RMK QFE746
VFR 4°C / -2°C 230º 8kt >10km - Clouds and Visibility OK 1021 No Significant change USCC 170000Z 23004MPS CAVOK 04/M02 Q1021 R27/000060 NOSIG RMK QFE746
VFR 4°C / -2°C 230º 8kt >10km - Clouds and Visibility OK 1022 No Significant change USCC 162330Z 23004MPS CAVOK 04/M02 Q1022 R27/000060 NOSIG RMK QFE746
MVFR 3°C / -1°C 230º 8kt 5000m Smoke Vertical Visibility of 0ft. 1022 No Significant change USCC 162300Z 23004MPS 5000 FU NSC 03/M01 Q1022 R27/000060 NOSIG RMK QFE746
MVFR 4°C / -2°C 230º 8kt 6000m - Clear 1021 No Significant change USCC 162230Z 23004MPS 6000 NSC 04/M02 Q1021 R27/000060 NOSIG RMK QFE746
MVFR 4°C / -1°C 230º 10kt 6000m - Clear 1022 No Significant change USCC 162200Z 23005MPS 6000 NSC 04/M01 Q1022 R27/000060 NOSIG RMK QFE746
MVFR 4°C / -1°C 220º 8kt 5000m Smoke Vertical Visibility of 0ft. 1022 No Significant change USCC 162130Z 22004MPS 5000 FU NSC 04/M01 Q1022 R27/000060 NOSIG RMK QFE746

VFR

11°C / -3°C

[Više]
Vetar 240º 10kt
Vidljivost >10km
Prognoza -
Oblaci Clouds and Visibility OK
Pritisak 1020
Promena No Significant change
Neobrađeno USCC 170900Z 24005MPS CAVOK 11/M03 Q1020 R27/000060 NOSIG RMK QFE745

VFR

11°C / -3°C

[Više]
Vetar 230º 10kt
Vidljivost >10km
Prognoza -
Oblaci Clouds and Visibility OK
Pritisak 1020
Promena No Significant change
Neobrađeno USCC 170830Z 23005MPS CAVOK 11/M03 Q1020 R27/000060 NOSIG RMK QFE745

VFR

11°C / -3°C

[Više]
Vetar 240º 12kt
Vidljivost >10km
Prognoza -
Oblaci Clouds and Visibility OK
Pritisak 1020
Promena No Significant change
Neobrađeno USCC 170800Z 24006MPS CAVOK 11/M03 Q1020 R27/000060 NOSIG RMK QFE745

VFR

11°C / -3°C

[Više]
Vetar 230º 12kt
Vidljivost >10km
Prognoza -
Oblaci Clouds and Visibility OK
Pritisak 1020
Promena No Significant change
Neobrađeno USCC 170730Z 23006MPS CAVOK 11/M03 Q1020 R27/000060 NOSIG RMK QFE745

VFR

11°C / -3°C

[Više]
Vetar 230º 10kt
Vidljivost >10km
Prognoza -
Oblaci Clouds and Visibility OK
Pritisak 1020
Promena No Significant change
Neobrađeno USCC 170700Z 23005MPS CAVOK 11/M03 Q1020 R27/000060 NOSIG RMK QFE745

VFR

10°C / -3°C

[Više]
Vetar 240º 12kt
Vidljivost >10km
Prognoza -
Oblaci Clouds and Visibility OK
Pritisak 1021
Promena No Significant change
Neobrađeno USCC 170630Z 24006MPS CAVOK 10/M03 Q1021 R27/000060 NOSIG RMK QFE745

VFR

9°C / -2°C

[Više]
Vetar 240º 12kt
Vidljivost >10km
Prognoza -
Oblaci Clouds and Visibility OK
Pritisak 1021
Promena No Significant change
Neobrađeno USCC 170600Z 24006MPS CAVOK 09/M02 Q1021 R27/000060 NOSIG RMK QFE746

VFR

9°C / -2°C

[Više]
Vetar 220º 10kt
Vidljivost >10km
Prognoza -
Oblaci Clouds and Visibility OK
Pritisak 1021
Promena No Significant change
Neobrađeno USCC 170530Z 22005MPS CAVOK 09/M02 Q1021 R27/000060 NOSIG RMK QFE746

VFR

8°C / -2°C

[Više]
Vetar 230º 10kt
Vidljivost >10km
Prognoza -
Oblaci Clouds and Visibility OK
Pritisak 1021
Promena No Significant change
Neobrađeno USCC 170500Z 23005MPS CAVOK 08/M02 Q1021 R27/000060 NOSIG RMK QFE746

VFR

6°C / -2°C

[Više]
Vetar 220º 8kt
Vidljivost >10km
Prognoza -
Oblaci Clouds and Visibility OK
Pritisak 1021
Promena No Significant change
Neobrađeno USCC 170430Z 22004MPS CAVOK 06/M02 Q1021 R27/000060 NOSIG RMK QFE746

VFR

5°C / -2°C

[Više]
Vetar 220º 8kt
Vidljivost >10km
Prognoza -
Oblaci Clouds and Visibility OK
Pritisak 1021
Promena No Significant change
Neobrađeno USCC 170400Z 22004MPS CAVOK 05/M02 Q1021 R27/000060 NOSIG RMK QFE746

VFR

4°C / -2°C

[Više]
Vetar 230º 10kt
Vidljivost >10km
Prognoza -
Oblaci Clouds and Visibility OK
Pritisak 1021
Promena No Significant change
Neobrađeno USCC 170330Z 23005MPS CAVOK 04/M02 Q1021 R27/000060 NOSIG RMK QFE746

VFR

3°C / -2°C

[Više]
Vetar 220º 8kt
Vidljivost >10km
Prognoza -
Oblaci Clouds and Visibility OK
Pritisak 1021
Promena No Significant change
Neobrađeno USCC 170300Z 22004MPS CAVOK 03/M02 Q1021 R27/000060 NOSIG RMK QFE746

VFR

3°C / -2°C

[Više]
Vetar 230º 8kt
Vidljivost >10km
Prognoza -
Oblaci Clouds and Visibility OK
Pritisak 1021
Promena No Significant change
Neobrađeno USCC 170230Z 23004MPS CAVOK 03/M02 Q1021 R27/000060 NOSIG RMK QFE746

VFR

4°C / -2°C

[Više]
Vetar 230º 10kt
Vidljivost >10km
Prognoza -
Oblaci Clouds and Visibility OK
Pritisak 1021
Promena No Significant change
Neobrađeno USCC 170200Z 23005MPS CAVOK 04/M02 Q1021 R27/000060 NOSIG RMK QFE746

VFR

4°C / -2°C

[Više]
Vetar 220º 10kt
Vidljivost >10km
Prognoza -
Oblaci Clouds and Visibility OK
Pritisak 1021
Promena No Significant change
Neobrađeno USCC 170130Z 22005MPS CAVOK 04/M02 Q1021 R27/000060 NOSIG RMK QFE746

MVFR

4°C / -2°C

[Više]
Vetar 220º 8kt
Vidljivost 6000m
Prognoza -
Oblaci Clear
Pritisak 1021
Promena No Significant change
Neobrađeno USCC 170100Z 22004MPS 6000 NSC 04/M02 Q1021 R27/000060 NOSIG RMK QFE746

MVFR

3°C / -2°C

[Više]
Vetar 230º 8kt
Vidljivost 6000m
Prognoza -
Oblaci Clear
Pritisak 1021
Promena No Significant change
Neobrađeno USCC 170030Z 23004MPS 6000 NSC 03/M02 Q1021 R27/000060 NOSIG RMK QFE746

VFR

4°C / -2°C

[Više]
Vetar 230º 8kt
Vidljivost >10km
Prognoza -
Oblaci Clouds and Visibility OK
Pritisak 1021
Promena No Significant change
Neobrađeno USCC 170000Z 23004MPS CAVOK 04/M02 Q1021 R27/000060 NOSIG RMK QFE746

VFR

4°C / -2°C

[Više]
Vetar 230º 8kt
Vidljivost >10km
Prognoza -
Oblaci Clouds and Visibility OK
Pritisak 1022
Promena No Significant change
Neobrađeno USCC 162330Z 23004MPS CAVOK 04/M02 Q1022 R27/000060 NOSIG RMK QFE746

MVFR

3°C / -1°C

[Više]
Vetar 230º 8kt
Vidljivost 5000m
Prognoza Smoke
Oblaci Vertical Visibility of 0ft.
Pritisak 1022
Promena No Significant change
Neobrađeno USCC 162300Z 23004MPS 5000 FU NSC 03/M01 Q1022 R27/000060 NOSIG RMK QFE746

MVFR

4°C / -2°C

[Više]
Vetar 230º 8kt
Vidljivost 6000m
Prognoza -
Oblaci Clear
Pritisak 1021
Promena No Significant change
Neobrađeno USCC 162230Z 23004MPS 6000 NSC 04/M02 Q1021 R27/000060 NOSIG RMK QFE746

MVFR

4°C / -1°C

[Više]
Vetar 230º 10kt
Vidljivost 6000m
Prognoza -
Oblaci Clear
Pritisak 1022
Promena No Significant change
Neobrađeno USCC 162200Z 23005MPS 6000 NSC 04/M01 Q1022 R27/000060 NOSIG RMK QFE746

MVFR

4°C / -1°C

[Više]
Vetar 220º 8kt
Vidljivost 5000m
Prognoza Smoke
Oblaci Vertical Visibility of 0ft.
Pritisak 1022
Promena No Significant change
Neobrađeno USCC 162130Z 22004MPS 5000 FU NSC 04/M01 Q1022 R27/000060 NOSIG RMK QFE746

TAF za 55.31°S 61.5°I (USCC)

From till


From till Wind 220º 6kt. Gust 23kt. Visibility 10km or more. Nil Significant Cloud.
Temporarly from till Wind 220º 10kt. Gust 27kt.

Neobrađeno: TAF USCC 170800Z 1709/1809 22003G12MPS CAVOK TEMPO 1709/1718 22005G14MPS

Trenutni satelitski snimci i slike kiše za 55.31°S 61.5°I

Marker lokacije postavljen je na 55.31°S 61.5°I. [Više]

Satelitski snimci u realnom vremenu kombinuju vidljivu svetlost tokom dana sa infracrvenim zračenjem tokom noći. Noću slika nije tamna jer infracrveno zračenje može otkriti temperaturne razlike. Nažalost, niski oblaci i magla teško se mogu razlikovati od temperature zemlje tako da mogu biti skoro nevidljivi tokom noći. Meteosat satelitski snimci za Evropu se ažuriraju u realnom vremenu na svakih 5 minuta. Slnimci GOES-16/GOES-17 (Severna i Južna Amerika) and Himawari (Azia) ažuriraju se na svakih 10 minuta.

Autorsko pravo 2021 EUMETSAT / meteoblue. / Autorsko pravo 2021 meteoblue

Radar i padavine kratka prognoza za 55.31°S 61.5°I

Rominjati
Svjetlo
Umjereno
Teška
Vrlo teško
Zdravo

Marker lokacije postavljen je na 55.31°S 61.5°I. Ova animacija prikazuje radar padavina za poslednji sat, kao i 1h prognozu. Пљусак кише или слаб снег може бити невидљив за радар. Интензитет падавина је кодиран у боји, у распону од светло плаве до наранџасте.